Location: Bailleul
(50.3375°N, 2.8513°E)
Time: 19:29:22
(UTC+00:00)

Cosmos 2221 - Pass Details

Date: 19 April 2021
Orbit: 593 x 614 km, 82.5° (Epoch: 18 May)

Event Time Altitude Azimuth Distance (km) Brightness Sun altitude
Exits shadow 21:05:30 22° 77° (ENE) 1,335 4.0 -18.8°
Drops below altitude 10° 21:08:20 10° 36° (NE) 1,943 5.2 -19.1°
Sets 21:10:56 0° 22° (NNE) 2,854 6.3 -19.4°
